Location: Black Skies Observatory
(44.7549°N, 79.7179°W)
Time: 14:41:14
(UTC-05:00)

Envisat - Pass Details

Date: 09 November 2020
Orbit: 764 x 766 km, 98.1° (Epoch: 01 December)

Event Time Altitude Azimuth Distance (km) Brightness Sun altitude
Rises 18:33:08 0° 205° (SSW) 3,219 6.7 -17.3°
Reaches altitude 10° 18:36:02 10° 222° (SW) 2,298 6.2 -17.8°
Maximum altitude 18:39:42 20° 269° (W) 1,723 5.8 -18.5°
Drops below altitude 10° 18:43:23 10° 315° (NW) 2,310 6.0 -19.1°
Sets 18:46:19 0° 333° (NNW) 3,242 6.5 -19.7°
